ANIK F2

Last updated on Thu Nov 21 2024 00:02:40 GMT+0000 (Coordinated Universal Time)

1 28378U 04027A 24325.29852226 -.00000047 00000+0 00000+0 0 9993 2 28378 1.8022 87.0500 0001331 97.2724 231.8355 1.00271302 35508
UTC large
Height (km)
Speed (km/s)
/
Latitude / Longitude
Inclination (degrees)
Orbital Period (minutes)
Azimuth
Elevation
Range (km)
Doppler Factor

Next 0 passes for location: London (51.5072 / 0.1276)

Sorry there are no passes over London.